FW9784 Weather Reports


Display with metric or nautical units.
time (UTC)temp
F
wind
direction
speed
MPH
gust
MPH
rain 1hr
in
rain 24hr
in
rain mn
in
humidity
%
barometer
mb
20260906134851 65 337 2.0 4.0 0.03 0.14 0.14 88 1013.4
20260906134334 65 350 2.0 4.0 0.05 0.14 0.14 88 1013.1
20260906134020 65 355 1.0 4.0 0.06 0.14 0.14 88 1013.4
20260906133914 65 53 1.0 4.0 0.05 0.14 0.14 89 1013.1
20260906132846 65 335 1.0 3.0 0.07 0.14 0.14 87 1013.6
20260906132332 66 18 2.0 4.0 0.08 0.14 0.14 88 1014.0
20260906131839 66 306 2.0 4.0 0.08 0.14 0.14 88 1014.0
20260906131334 67 320 2.0 6.0 0.09 0.14 0.14 87 1013.7
20260906130856 68 22 3.0 8.0 0.14 0.14 0.14 88 1013.4
20260906130843 67 315 3.0 8.0 0.11 0.14 0.14 87 1013.7
20260906125852 69 281 2.0 7.0 0.13 0.13 0.13 89 1013.4
20260906125333 69 346 2.0 7.0 0.13 0.13 0.12 89 1013.2
20260906124908 69 225 0.0 2.0 0.09 0.09 0.09 86 1013.6
20260906124850 69 347 1.0 6.0 0.11 0.11 0.10 88 1013.5
20260906123845 70 225 1.0 2.0 0.09 0.09 0.09 86 1013.8
20260906123329 71 225 0.0 2.0 0.08 0.08 0.08 87 1013.8
20260906122830 71 275 0.0 0.0 0.07 0.07 0.07 88 1013.2
20260906122330 71 275 0.0 0.0 0.06 0.06 0.06 87 1012.8
20260906122051 72 275 0.0 2.0 0.06 0.06 0.06 86 1012.7
20260906121834 72 275 0.0 2.0 0.06 0.06 0.06 86 1012.7
20260906121329 72 275 1.0 2.0 0.05 0.05 0.05 85 1012.5
20260906120831 72 0 1.0 3.0 0.03 0.03 0.03 84 1012.6
20260906120330 72 150 1.0 3.0 0.00 0.00 0.00 84 1012.5
20260906115829 72 211 0.0 3.0 0.00 0.00 0.00 84 1012.3
20260906115333 71 251 0.0 0.0 0.00 0.00 0.00 85 1012.1
20260906114830 71 251 0.0 0.0 0.00 0.00 0.00 84 1011.6
20260906114352 71 251 0.0 0.0 0.00 0.00 0.00 85 1011.6
20260906113830 71 251 0.0 0.0 0.00 0.00 0.00 85 1011.7
20260906113346 71 251 0.0 0.0 0.00 0.00 0.00 85 1011.6
20260906112830 71 251 0.0 0.0 0.00 0.00 0.00 84 1011.7
20260906112339 71 251 0.0 0.0 0.00 0.00 0.00 84 1011.6
20260906111834 71 251 0.0 0.0 0.00 0.00 0.00 84 1011.8
20260906111336 71 251 0.0 0.0 0.00 0.00 0.00 84 1011.8
20260906110833 71 251 0.0 0.0 0.00 0.00 0.00 84 1011.7
20260906110338 71 251 0.0 0.0 0.00 0.00 0.00 84 1011.7
20260906105829 71 251 0.0 0.0 0.00 0.00 0.00 84 1011.8
20260906105344 71 251 0.0 0.0 0.00 0.00 0.00 83 1011.7
20260906104832 71 251 0.0 0.0 0.00 0.00 0.00 83 1011.6
20260906104336 71 251 0.0 0.0 0.00 0.00 0.00 83 1011.7
20260906103829 71 251 0.0 0.0 0.00 0.00 0.00 83 1011.9
20260906103537 71 251 0.0 0.0 0.00 0.00 0.00 83 1011.8
20260906103431 71 251 0.0 0.0 0.00 0.00 0.00 83 1011.9
20260906102849 71 251 0.0 0.0 0.00 0.00 0.00 83 1011.7
20260906101824 71 251 0.0 0.0 0.00 0.00 0.00 84 1011.7
20260906101327 71 251 0.0 0.0 0.00 0.00 0.00 83 1011.7
20260906100819 71 251 0.0 0.0 0.00 0.00 0.00 84 1011.7
20260906100322 71 251 0.0 0.0 0.00 0.00 0.00 84 1011.7
20260906095818 71 251 0.0 0.0 0.00 0.00 0.00 84 1011.8
20260906095316 71 251 0.0 0.0 0.00 0.00 0.00 85 1011.8
20260906095306 71 251 0.0 0.0 0.00 0.00 0.00 85 1011.8
20260906094309 71 251 0.0 0.0 0.00 0.00 0.00 86 1011.9
20260906093808 71 251 0.0 0.0 0.00 0.00 0.00 86 1012.0
20260906093307 71 251 0.0 0.0 0.00 0.00 0.00 86 1012.0
20260906092824 71 251 0.0 0.0 0.00 0.00 0.00 86 1011.9
20260906092306 71 251 0.0 0.0 0.00 0.00 0.00 86 1011.8
20260906092137 71 251 0.0 0.0 0.00 0.00 0.00 86 1011.8
20260906091949 71 251 0.0 0.0 0.00 0.00 0.00 86 1011.8
20260906091656 71 251 0.0 0.0 0.00 0.00 0.00 87 1011.9
20260906091453 71 251 0.0 0.0 0.00 0.00 0.00 86 1011.8
20260906090320 70 251 0.0 0.0 0.00 0.00 0.00 87 1012.0
20260906090309 71 251 0.0 0.0 0.00 0.00 0.00 87 1011.9
20260906084851 70 251 0.0 0.0 0.00 0.00 0.00 88 1012.0
20260906084809 70 251 0.0 0.0 0.00 0.00 0.00 88 1012.0
20260906083801 70 251 0.0 0.0 0.00 0.00 0.00 88 1012.1
20260906083302 70 251 0.0 0.0 0.00 0.00 0.00 88 1012.1
20260906082759 70 251 0.0 0.0 0.00 0.00 0.00 87 1012.1
20260906082256 70 251 0.0 0.0 0.00 0.00 0.00 88 1012.1
20260906081758 70 251 0.0 0.0 0.00 0.00 0.00 88 1012.2
20260906081254 70 251 0.0 0.0 0.00 0.00 0.00 88 1012.1
20260906080756 70 251 0.0 0.0 0.00 0.00 0.00 87 1012.2
20260906080257 70 251 0.0 0.0 0.00 0.00 0.00 87 1012.2
20260906075753 70 251 0.0 0.0 0.00 0.00 0.00 87 1012.3
20260906075253 70 251 0.0 0.0 0.00 0.00 0.00 87 1012.3
20260906075155 70 251 0.0 0.0 0.00 0.00 0.00 87 1012.3
20260906075146 70 251 0.0 0.0 0.00 0.00 0.00 87 1012.3
20260906074844 70 251 0.0 0.0 0.00 0.00 0.00 87 1012.3
20260906073253 70 251 0.0 0.0 0.00 0.00 0.00 87 1012.4
20260906073243 70 251 0.0 0.0 0.00 0.00 0.00 87 1012.3
20260906072330 70 251 0.0 0.0 0.00 0.00 0.00 87 1012.3
20260906072308 70 251 0.0 0.0 0.00 0.00 0.00 87 1012.2
20260906071623 71 251 0.0 1.0 0.00 0.00 0.00 86 1012.2
20260906071340 70 251 0.0 1.0 0.00 0.00 0.00 87 1012.3
20260906070833 70 251 0.0 1.0 0.00 0.00 0.00 86 1012.2
20260906065752 71 251 0.0 0.0 0.00 0.00 0.00 86 1012.2
20260906065241 71 251 0.0 0.0 0.00 0.00 0.00 85 1012.2
20260906064755 71 251 0.0 0.0 0.00 0.00 0.00 85 1012.2
20260906064626 71 251 0.0 0.0 0.00 0.00 0.00 85 1012.2
20260906064342 71 251 0.0 0.0 0.00 0.00 0.00 85 1012.1
20260906063241 71 251 0.0 2.0 0.00 0.00 0.00 85 1012.2
20260906062910 71 251 0.0 1.0 0.00 0.00 0.00 84 1012.3
20260906062906 71 251 0.0 0.0 0.00 0.00 0.00 84 1012.4
20260906062823 71 251 0.0 2.0 0.00 0.00 0.00 85 1012.3
20260906061234 71 251 0.0 0.0 0.00 0.00 0.00 84 1012.4
20260906061040 72 251 0.0 2.0 0.00 0.00 0.00 84 1012.3
20260906060907 72 251 0.0 0.0 0.00 0.00 0.00 84 1012.4
20260906060855 72 251 0.0 1.0 0.00 0.00 0.00 84 1012.4
20260906060812 71 251 0.0 2.0 0.00 0.00 0.00 84 1012.4
20260906054734 72 251 0.0 1.0 0.00 0.00 0.00 84 1012.4
20260906054658 72 251 0.0 2.0 0.00 0.00 0.00 84 1012.4
20260906053734 72 251 0.0 2.0 0.00 0.00 0.00 84 1012.4
20260906053229 72 251 0.0 2.0 0.00 0.00 0.00 84 1012.5
20260906052751 72 251 1.0 3.0 0.00 0.00 0.00 84 1012.5
20260906052230 72 251 1.0 3.0 0.00 0.00 0.00 84 1012.6
20260906051735 72 251 0.0 2.0 0.00 0.00 0.00 85 1012.6
20260906051233 72 251 1.0 3.0 0.00 0.00 0.00 85 1012.7
20260906050733 72 251 1.0 3.0 0.00 0.00 0.00 85 1012.6
20260906050229 72 251 1.0 3.0 0.00 0.00 0.00 85 1012.6
20260906045801 72 215 1.0 3.0 0.00 0.00 0.00 85 1012.7
20260906045744 72 219 1.0 3.0 0.00 0.00 0.00 85 1012.6
20260906044724 72 211 0.0 2.0 0.00 0.00 0.00 84 1012.7
20260906044220 72 211 0.0 0.0 0.00 0.00 0.00 84 1012.6
20260906043721 72 211 0.0 0.0 0.00 0.00 0.00 84 1012.6
20260906043514 72 211 0.0 0.0 0.00 0.00 0.00 84 1012.6
20260906042721 72 211 0.0 0.0 0.00 0.00 0.00 83 1012.6
20260906042224 72 211 0.0 0.0 0.00 0.00 0.00 83 1012.6
20260906041714 72 211 0.0 0.0 0.00 0.00 0.00 82 1012.8
20260906041513 73 211 1.0 3.0 0.00 0.00 0.00 82 1012.6
20260906041252 73 211 0.0 0.0 0.00 0.00 0.00 82 1012.6
20260906040215 73 211 1.0 4.0 0.00 0.00 0.00 82 1012.5
20260906035714 73 210 1.0 4.0 0.00 0.00 0.00 81 1012.6
20260906035532 73 0 0.0 2.0 0.00 0.00 0.00 80 1012.5
20260906035522 73 0 0.0 3.0 0.00 0.00 0.00 80 1012.5
20260906035241 73 0 1.0 3.0 0.00 0.00 0.00 81 1012.6
20260906033938 73 0 1.0 4.0 0.00 0.00 0.00 80 1012.5
20260906033206 73 0 1.0 4.0 0.00 0.00 0.00 80 1012.4
20260906032706 73 234 1.0 4.0 0.00 0.00 0.00 80 1012.3
20260906032221 73 226 1.0 4.0 0.00 0.00 0.00 80 1012.2
20260906031707 73 0 2.0 4.0 0.00 0.00 0.00 80 1012.3
20260906031226 73 234 1.0 4.0 0.00 0.00 0.00 80 1012.3
20260906030704 73 255 1.0 5.0 0.00 0.00 0.00 81 1012.1
20260906030222 73 255 2.0 6.0 0.00 0.00 0.00 81 1012.1
20260906025703 73 198 2.0 6.0 0.00 0.00 0.00 80 1012.1
20260906025442 74 0 1.0 6.0 0.00 0.00 0.00 80 1012.0
20260906024702 74 282 1.0 4.0 0.00 0.00 0.00 79 1012.0
20260906024437 74 287 2.0 5.0 0.00 0.00 0.00 76 1012.2
20260906024331 75 213 2.0 6.0 0.00 0.00 0.00 73 1012.2
20260906024224 74 252 2.0 4.0 0.00 0.00 0.00 78 1011.9
20260906024122 75 219 3.0 6.0 0.00 0.00 0.00 73 1012.2
20260906023800 74 309 2.0 5.0 0.00 0.00 0.00 77 1012.1
20260906022919 75 278 3.0 6.0 0.00 0.00 0.00 75 1012.3
20260906021800 75 208 2.0 8.0 0.00 0.00 0.00 71 1012.1
20260906021441 75 0 2.0 8.0 0.00 0.00 0.00 71 1012.0
20260906021133 75 294 3.0 8.0 0.00 0.00 0.00 73 1012.2
20260906020835 75 0 2.0 7.0 0.00 0.00 0.00 71 1012.2
20260906015219 76 209 2.0 8.0 0.00 0.00 0.00 77 1012.1
20260906015149 76 234 3.0 8.0 0.00 0.00 0.00 75 1012.1
20260906015017 76 279 3.0 8.0 0.00 0.00 0.00 74 1012.0
20260906013905 76 218 3.0 9.0 0.00 0.00 0.00 74 1012.3
20260906013741 76 287 3.0 8.0 0.00 0.00 0.00 73 1012.0
20260906013235 76 257 3.0 6.0 0.00 0.00 0.00 75 1012.2
20260906012930 76 212 3.0 7.0 0.00 0.00 0.00 74 1012.2
20260906011717 76 226 3.0 9.0 0.00 0.00 0.00 73 1012.3
20260906011239 76 227 3.0 8.0 0.00 0.00 0.00 74 1012.2
20260906010656 76 227 3.0 8.0 0.00 0.00 0.00 73 1012.1
20260906010250 76 0 3.0 8.0 0.00 0.00 0.00 74 1012.2
20260906005721 77 201 3.0 8.0 0.00 0.00 0.00 73 1012.1
20260906005225 77 197 3.0 8.0 0.00 0.00 0.00 73 1012.1
20260906004707 77 232 3.0 8.0 0.00 0.00 0.00 73 1012.1
20260906004525 77 197 4.0 8.0 0.00 0.00 0.00 74 1012.0
20260906004327 77 223 3.0 7.0 0.00 0.00 0.00 74 1012.0
20260906003228 77 213 4.0 8.0 0.00 0.00 0.00 72 1012.0
20260906002715 78 155 3.0 6.0 0.00 0.00 0.00 71 1012.1
20260906002223 78 219 3.0 7.0 0.00 0.00 0.00 71 1012.0
20260906001736 79 230 3.0 8.0 0.00 0.00 0.00 72 1012.0
20260906001235 79 253 3.0 8.0 0.00 0.00 0.00 70 1011.9
20260906000706 79 272 4.0 11.0 0.00 0.00 0.00 72 1012.1
20260906000230 79 0 5.0 11.0 0.00 0.00 0.00 70 1012.0
20260905235711 79 0 5.0 10.0 0.00 0.00 0.00 68 1012.1
20260905235247 80 208 4.0 10.0 0.00 0.00 0.00 69 1012.0
20260905234956 80 204 4.0 10.0 0.00 0.00 0.00 69 1012.1
20260905234223 81 0 4.0 10.0 0.00 0.00 0.00 68 1012.0
20260905234040 80 0 4.0 10.0 0.00 0.00 0.00 70 1012.1
20260905233843 80 0 4.0 9.0 0.00 0.00 0.00 69 1012.0
20260905233711 80 190 4.0 9.0 0.00 0.00 0.00 68 1012.0
20260905233353 80 268 4.0 9.0 0.00 0.00 0.00 69 1011.9
20260905231650 80 0 4.0 11.0 0.00 0.00 0.00 69 1012.1
20260905231213 81 0 5.0 11.0 0.00 0.00 0.00 69 1012.1
20260905231037 81 0 4.0 9.0 0.00 0.00 0.00 68 1012.1
20260905231015 82 195 3.0 9.0 0.00 0.00 0.00 68 1012.2
20260905230737 81 0 5.0 9.0 0.00 0.00 0.00 68 1012.1
20260905230349 82 204 4.0 10.0 0.00 0.00 0.00 67 1012.2
20260905225957 81 0 4.0 10.0 0.00 0.00 0.00 68 1012.2
20260905225742 82 209 4.0 10.0 0.00 0.00 0.00 67 1012.1
20260905225402 82 267 4.0 9.0 0.00 0.00 0.00 68 1012.2
20260905224021 81 188 4.0 10.0 0.00 0.00 0.00 69 1012.2
20260905222803 82 246 3.0 8.0 0.00 0.00 0.00 68 1012.3
20260905222205 81 306 4.0 8.0 0.00 0.00 0.00 69 1012.4
20260905221650 81 220 4.0 8.0 0.00 0.00 0.00 70 1012.4
20260905221157 81 0 4.0 8.0 0.00 0.00 0.00 69 1012.4
20260905220645 81 0 4.0 9.0 0.00 0.00 0.00 70 1012.6
20260905220239 81 184 4.0 10.0 0.00 0.00 0.00 69 1012.6
20260905220211 81 257 4.0 9.0 0.00 0.00 0.00 69 1012.5
20260905215147 81 259 4.0 10.0 0.00 0.00 0.00 69 1012.6
20260905214631 82 210 4.0 9.0 0.00 0.00 0.00 69 1012.6
20260905214141 81 0 4.0 9.0 0.00 0.00 0.00 69 1012.6
20260905213631 81 195 5.0 9.0 0.00 0.00 0.00 68 1012.7
20260905213150 82 0 4.0 9.0 0.00 0.00 0.00 69 1012.7
20260905212749 82 192 4.0 10.0 0.00 0.00 0.00 68 1012.7
20260905212700 82 227 4.0 10.0 0.00 0.00 0.00 69 1012.7
20260905211650 82 0 4.0 10.0 0.00 0.00 0.00 68 1012.7
20260905211212 82 0 4.0 10.0 0.00 0.00 0.00 67 1012.7
20260905210753 82 217 4.0 10.0 0.00 0.00 0.00 68 1012.8
20260905210744 82 220 4.0 10.0 0.00 0.00 0.00 68 1012.7
20260905210712 82 0 4.0 8.0 0.00 0.00 0.00 67 1012.7
20260905210225 82 217 4.0 10.0 0.00 0.00 0.00 68 1012.8
20260905205301 81 180 4.0 10.0 0.00 0.00 0.00 68 1013.0
20260905205158 81 0 4.0 10.0 0.00 0.00 0.00 68 1012.9
20260905204143 81 0 5.0 11.0 0.00 0.00 0.00 68 1013.1
20260905203643 81 0 5.0 11.0 0.00 0.00 0.00 68 1013.3
20260905203146 81 0 4.0 10.0 0.00 0.00 0.00 68 1013.3
20260905202652 81 250 4.0 10.0 0.00 0.00 0.00 68 1013.4
20260905202132 81 186 4.0 9.0 0.00 0.00 0.00 68 1013.3
20260905201658 81 0 4.0 9.0 0.00 0.00 0.00 68 1013.3
20260905201136 81 0 4.0 9.0 0.00 0.00 0.00 68 1013.5
20260905200644 81 0 4.0 9.0 0.00 0.00 0.00 67 1013.5
20260905200132 81 210 4.0 10.0 0.00 0.00 0.00 68 1013.6
20260905195639 81 0 4.0 10.0 0.00 0.00 0.00 68 1013.7
20260905195138 81 224 4.0 8.0 0.00 0.00 0.00 68 1013.7
20260905194646 81 297 4.0 8.0 0.00 0.00 0.00 68 1013.8
20260905194128 81 252 3.0 9.0 0.00 0.00 0.00 67 1013.8
20260905193648 80 0 3.0 9.0 0.00 0.00 0.00 68 1013.8
20260905193128 80 259 3.0 10.0 0.00 0.00 0.00 69 1013.8
20260905192729 80 198 3.0 6.0 0.00 0.00 0.00 69 1013.9
20260905192657 80 0 3.0 10.0 0.00 0.00 0.00 68 1013.9
20260905191908 80 193 3.0 8.0 0.00 0.00 0.00 69 1014.0
20260905191708 80 218 3.0 10.0 0.00 0.00 0.00 70 1014.1
20260905191328 80 0 3.0 8.0 0.00 0.00 0.00 69 1014.0
20260905190129 79 0 4.0 10.0 0.00 0.00 0.00 70 1014.3
20260905185638 80 0 4.0 8.0 0.00 0.00 0.00 70 1014.3
20260905185132 80 269 3.0 8.0 0.00 0.00 0.00 70 1014.4
20260905184638 79 0 4.0 8.0 0.00 0.00 0.00 70 1014.4
20260905184133 79 224 3.0 8.0 0.00 0.00 0.00 70 1014.4
20260905183633 80 0 3.0 8.0 0.00 0.00 0.00 70 1014.5
20260905183128 79 232 3.0 9.0 0.00 0.00 0.00 71 1014.5
20260905182631 79 252 4.0 9.0 0.00 0.00 0.00 70 1014.5
20260905182134 80 0 3.0 9.0 0.00 0.00 0.00 70 1014.5
20260905181643 80 217 3.0 6.0 0.00 0.00 0.00 69 1014.5
20260905181134 80 227 2.0 8.0 0.00 0.00 0.00 69 1014.5
20260905180627 80 222 3.0 8.0 0.00 0.00 0.00 68 1014.5
20260905180129 80 250 3.0 7.0 0.00 0.00 0.00 69 1014.5
20260905175633 80 208 3.0 5.0 0.00 0.00 0.00 68 1014.6
20260905175128 79 182 2.0 5.0 0.00 0.00 0.00 68 1014.5
20260905174631 78 80 2.0 4.0 0.00 0.00 0.00 65 1014.5
20260905174132 78 292 2.0 4.0 0.00 0.00 0.00 64 1014.5
20260905173629 79 182 2.0 4.0 0.00 0.00 0.00 65 1014.4
20260905173129 79 250 2.0 5.0 0.00 0.00 0.00 65 1014.3
20260905172637 79 168 2.0 5.0 0.00 0.00 0.00 65 1014.3
20260905172130 79 154 1.0 5.0 0.00 0.00 0.00 67 1014.3
20260905171630 78 156 2.0 5.0 0.00 0.00 0.00 68 1014.3
20260905171542 78 178 2.0 5.0 0.00 0.00 0.00 67 1014.3
20260905170627 78 233 2.0 5.0 0.00 0.00 0.00 68 1014.3
20260905170126 78 187 1.0 4.0 0.00 0.00 0.00 69 1014.2
20260905165626 78 144 1.0 3.0 0.00 0.00 0.00 69 1014.3
20260905165129 77 107 2.0 7.0 0.00 0.00 0.00 70 1014.2
20260905164631 77 96 1.0 7.0 0.00 0.00 0.00 71 1014.2
20260905164123 76 157 1.0 4.0 0.00 0.00 0.00 72 1014.2
20260905163627 76 71 2.0 4.0 0.00 0.00 0.00 72 1014.1
20260905163117 76 103 1.0 4.0 0.00 0.00 0.00 73 1014.1
20260905163040 76 304 1.0 4.0 0.00 0.00 0.00 73 1014.1
20260905162114 75 101 2.0 4.0 0.00 0.00 0.00 74 1014.0
20260905161612 75 103 1.0 4.0 0.00 0.00 0.00 75 1014.1
20260905161110 75 84 1.0 4.0 0.00 0.00 0.00 76 1014.1
20260905160619 75 119 2.0 4.0 0.00 0.00 0.00 77 1014.1
20260905160110 74 51 1.0 3.0 0.00 0.00 0.00 78 1014.0
20260905155614 74 116 1.0 3.0 0.00 0.00 0.00 79 1014.0
20260905155301 72 10 2.0 4.0 0.00 0.00 0.00 82 1013.9
20260905155142 73 116 1.0 3.0 0.00 0.00 0.00 81 1013.9
20260905154103 72 49 2.0 4.0 0.00 0.00 0.00 82 1013.9
20260905153826 72 49 2.0 4.0 0.00 0.00 0.00 82 1013.9
20260905153435 71 111 2.0 4.0 0.00 0.00 0.00 83 1013.8
20260905153020 71 94 2.0 4.0 0.00 0.00 0.00 84 1013.8
20260905152101 71 46 1.0 4.0 0.00 0.00 0.00 85 1013.8
20260905151604 70 70 1.0 3.0 0.00 0.00 0.00 86 1013.8
20260905151442 70 51 0.0 0.0 0.00 0.00 0.00 88 1013.7
20260905150601 69 51 0.0 0.0 0.00 0.00 0.00 90 1013.8
20260905150101 68 51 1.0 3.0 0.00 0.00 0.00 91 1013.7
20260905145601 68 51 1.0 4.0 0.00 0.00 0.00 92 1013.7
20260905145340 66 101 0.0 2.0 0.00 0.00 0.00 94 1013.6
20260905145250 66 101 0.0 0.0 0.00 0.00 0.00 95 1013.5
20260905145203 67 101 1.0 4.0 0.00 0.00 0.00 92 1013.7
20260905144708 67 101 1.0 3.0 0.00 0.00 0.00 94 1013.6
20260905143107 65 101 0.0 0.0 0.00 0.00 0.00 96 1013.5
20260905142558 65 101 0.0 0.0 0.00 0.00 0.00 96 1013.5
20260905142057 64 101 0.0 0.0 0.00 0.00 0.00 96 1013.5
20260905141941 64 101 0.0 0.0 0.00 0.00 0.00 96 1013.5
20260905141059 63 101 0.0 0.0 0.00 0.00 0.00 95 1013.4
20260905140547 63 101 0.0 0.0 0.00 0.00 0.00 95 1013.4
20260905140041 63 101 0.0 0.0 0.00 0.00 0.00 95 1013.3
20260905135535 63 101 0.0 0.0 0.00 0.00 0.00 94 1013.3
20260905135038 63 101 0.0 0.0 0.00 0.00 0.00 94 1013.2